﻿測定場所 (Monitoring sites),日付 (Measurement date),時間 (Measurement time),線量率 最大値 (max) μGy/h,線量率 最小値 (min) μGy/h,線量率 平均値 (average) μGy/h,
江東 (Koto),2014-05-18,23:01～24:00,0.0419,0.0372,0.0393,
江東 (Koto),2014-05-18,22:01～23:00,0.0417,0.0377,0.0394,
江東 (Koto),2014-05-18,21:01～22:00,0.0418,0.0375,0.0393,
江東 (Koto),2014-05-18,20:01～21:00,0.0424,0.0374,0.0394,
江東 (Koto),2014-05-18,19:01～20:00,0.0420,0.0373,0.0394,
江東 (Koto),2014-05-18,18:01～19:00,0.0414,0.0380,0.0396,
江東 (Koto),2014-05-18,17:01～18:00,0.0420,0.0370,0.0395,
江東 (Koto),2014-05-18,16:01～17:00,0.0418,0.0373,0.0397,
江東 (Koto),2014-05-18,15:01～16:00,0.0413,0.0370,0.0394,
江東 (Koto),2014-05-18,14:01～15:00,0.0416,0.0375,0.0396,
江東 (Koto),2014-05-18,13:01～14:00,0.0420,0.0364,0.0395,
江東 (Koto),2014-05-18,12:01～13:00,0.0418,0.0372,0.0393,
江東 (Koto),2014-05-18,11:01～12:00,0.0418,0.0374,0.0392,
江東 (Koto),2014-05-18,10:01～11:00,0.0418,0.0370,0.0397,
江東 (Koto),2014-05-18,09:01～10:00,0.0423,0.0370,0.0395,
江東 (Koto),2014-05-18,08:01～09:00,0.0422,0.0373,0.0396,
江東 (Koto),2014-05-18,07:01～08:00,0.0415,0.0377,0.0396,
江東 (Koto),2014-05-18,06:01～07:00,0.0419,0.0361,0.0396,
江東 (Koto),2014-05-18,05:01～06:00,0.0432,0.0378,0.0397,
江東 (Koto),2014-05-18,04:01～05:00,0.0425,0.0370,0.0395,
江東 (Koto),2014-05-18,03:01～04:00,0.0416,0.0365,0.0393,
江東 (Koto),2014-05-18,02:01～03:00,0.0422,0.0372,0.0392,
江東 (Koto),2014-05-18,01:01～02:00,0.0425,0.0372,0.0395,
江東 (Koto),2014-05-18,00:01～01:00,0.0419,0.0371,0.0397,
江東 (Koto),2014-05-17,23:01～24:00,0.0427,0.0371,0.0394,
江東 (Koto),2014-05-17,22:01～23:00,0.0428,0.0375,0.0395,
江東 (Koto),2014-05-17,21:01～22:00,0.0417,0.0370,0.0396,
江東 (Koto),2014-05-17,20:01～21:00,0.0420,0.0365,0.0393,
江東 (Koto),2014-05-17,19:01～20:00,0.0412,0.0375,0.0394,
江東 (Koto),2014-05-17,18:01～19:00,0.0416,0.0364,0.0389,
江東 (Koto),2014-05-17,17:01～18:00,0.0417,0.0376,0.0391,
江東 (Koto),2014-05-17,16:01～17:00,0.0421,0.0370,0.0396,
江東 (Koto),2014-05-17,15:01～16:00,0.0423,0.0369,0.0394,
江東 (Koto),2014-05-17,14:01～15:00,0.0431,0.0367,0.0396,
江東 (Koto),2014-05-17,13:01～14:00,0.0408,0.0372,0.0390,
江東 (Koto),2014-05-17,12:01～13:00,0.0417,0.0373,0.0394,
江東 (Koto),2014-05-17,11:01～12:00,0.0422,0.0368,0.0392,
江東 (Koto),2014-05-17,10:01～11:00,0.0415,0.0371,0.0393,
江東 (Koto),2014-05-17,09:01～10:00,0.0419,0.0368,0.0394,
江東 (Koto),2014-05-17,08:01～09:00,0.0414,0.0370,0.0391,
江東 (Koto),2014-05-17,07:01～08:00,0.0438,0.0370,0.0397,
江東 (Koto),2014-05-17,06:01～07:00,0.0417,0.0368,0.0395,
江東 (Koto),2014-05-17,05:01～06:00,0.0413,0.0376,0.0393,
江東 (Koto),2014-05-17,04:01～05:00,0.0417,0.0372,0.0395,
江東 (Koto),2014-05-17,03:01～04:00,0.0427,0.0377,0.0395,
江東 (Koto),2014-05-17,02:01～03:00,0.0423,0.0365,0.0396,
江東 (Koto),2014-05-17,01:01～02:00,0.0421,0.0377,0.0397,
江東 (Koto),2014-05-17,00:01～01:00,0.0422,0.0367,0.0394,
江東 (Koto),2014-05-16,23:01～24:00,0.0419,0.0377,0.0396,
江東 (Koto),2014-05-16,22:01～23:00,0.0420,0.0364,0.0393,
江東 (Koto),2014-05-16,21:01～22:00,0.0430,0.0360,0.0392,
江東 (Koto),2014-05-16,20:01～21:00,0.0426,0.0365,0.0395,
江東 (Koto),2014-05-16,19:01～20:00,0.0421,0.0371,0.0395,
江東 (Koto),2014-05-16,18:01～19:00,0.0412,0.0365,0.0392,
江東 (Koto),2014-05-16,17:01～18:00,0.0413,0.0369,0.0395,
江東 (Koto),2014-05-16,16:01～17:00,0.0410,0.0371,0.0394,
江東 (Koto),2014-05-16,15:01～16:00,0.0427,0.0369,0.0393,
江東 (Koto),2014-05-16,14:01～15:00,0.0416,0.0366,0.0392,
江東 (Koto),2014-05-16,13:01～14:00,0.0414,0.0366,0.0394,
江東 (Koto),2014-05-16,12:01～13:00,0.0417,0.0372,0.0391,
江東 (Koto),2014-05-16,11:01～12:00,0.0416,0.0366,0.0396,
江東 (Koto),2014-05-16,10:01～11:00,0.0419,0.0372,0.0394,
江東 (Koto),2014-05-16,09:01～10:00,0.0410,0.0368,0.0391,
江東 (Koto),2014-05-16,08:01～09:00,0.0414,0.0367,0.0394,
江東 (Koto),2014-05-16,07:01～08:00,0.0423,0.0369,0.0397,
江東 (Koto),2014-05-16,06:01～07:00,0.0426,0.0368,0.0394,
江東 (Koto),2014-05-16,05:01～06:00,0.0429,0.0365,0.0394,
江東 (Koto),2014-05-16,04:01～05:00,0.0421,0.0372,0.0394,
江東 (Koto),2014-05-16,03:01～04:00,0.0429,0.0366,0.0392,
江東 (Koto),2014-05-16,02:01～03:00,0.0425,0.0374,0.0396,
江東 (Koto),2014-05-16,01:01～02:00,0.0413,0.0364,0.0394,
江東 (Koto),2014-05-16,00:01～01:00,0.0431,0.0373,0.0395,
江東 (Koto),2014-05-15,23:01～24:00,0.0411,0.0368,0.0391,
江東 (Koto),2014-05-15,22:01～23:00,0.0418,0.0370,0.0394,
江東 (Koto),2014-05-15,21:01～22:00,0.0419,0.0373,0.0393,
江東 (Koto),2014-05-15,20:01～21:00,0.0415,0.0377,0.0394,
江東 (Koto),2014-05-15,19:01～20:00,0.0420,0.0366,0.0393,
江東 (Koto),2014-05-15,18:01～19:00,0.0410,0.0366,0.0390,
江東 (Koto),2014-05-15,17:01～18:00,0.0425,0.0366,0.0392,
江東 (Koto),2014-05-15,16:01～17:00,0.0416,0.0369,0.0390,
江東 (Koto),2014-05-15,15:01～16:00,0.0414,0.0373,0.0392,
江東 (Koto),2014-05-15,14:01～15:00,0.0411,0.0360,0.0391,
江東 (Koto),2014-05-15,13:01～14:00,0.0419,0.0373,0.0395,
江東 (Koto),2014-05-15,12:01～13:00,0.0419,0.0375,0.0397,
江東 (Koto),2014-05-15,11:01～12:00,0.0424,0.0378,0.0400,
江東 (Koto),2014-05-15,10:01～11:00,0.0430,0.0383,0.0406,
江東 (Koto),2014-05-15,09:01～10:00,0.0430,0.0377,0.0399,
江東 (Koto),2014-05-15,08:01～09:00,0.0438,0.0380,0.0402,
江東 (Koto),2014-05-15,07:01～08:00,0.0443,0.0383,0.0412,
江東 (Koto),2014-05-15,06:01～07:00,0.0450,0.0399,0.0423,
江東 (Koto),2014-05-15,05:01～06:00,0.0446,0.0389,0.0417,
江東 (Koto),2014-05-15,04:01～05:00,0.0442,0.0390,0.0415,
江東 (Koto),2014-05-15,03:01～04:00,0.0442,0.0391,0.0413,
江東 (Koto),2014-05-15,02:01～03:00,0.0419,0.0380,0.0399,
江東 (Koto),2014-05-15,01:01～02:00,0.0420,0.0381,0.0397,
江東 (Koto),2014-05-15,00:01～01:00,0.0424,0.0362,0.0394,
江東 (Koto),2014-05-14,22:01～23:00,0.0443,0.0378,0.0396,
江東 (Koto),2014-05-14,21:01～22:00,0.0428,0.0372,0.0394,
江東 (Koto),2014-05-14,20:01～21:00,0.0421,0.0362,0.0393,
江東 (Koto),2014-05-14,19:01～20:00,0.0420,0.0377,0.0394,
江東 (Koto),2014-05-14,18:01～19:00,0.0411,0.0372,0.0392,
江東 (Koto),2014-05-14,17:01～18:00,0.0417,0.0368,0.0392,
江東 (Koto),2014-05-14,16:01～17:00,0.0413,0.0373,0.0392,
江東 (Koto),2014-05-14,15:01～16:00,0.0417,0.0375,0.0394,
江東 (Koto),2014-05-14,14:01～15:00,0.0431,0.0369,0.0390,
江東 (Koto),2014-05-14,13:01～14:00,0.0410,0.0371,0.0390,
江東 (Koto),2014-05-14,12:01～13:00,0.0413,0.0370,0.0392,
江東 (Koto),2014-05-14,11:01～12:00,0.0421,0.0371,0.0390,
江東 (Koto),2014-05-14,10:01～11:00,0.0424,0.0372,0.0393,
江東 (Koto),2014-05-14,09:01～10:00,0.0413,0.0374,0.0392,
江東 (Koto),2014-05-14,08:01～09:00,0.0414,0.0370,0.0394,
江東 (Koto),2014-05-14,07:01～08:00,0.0414,0.0364,0.0394,
江東 (Koto),2014-05-14,06:01～07:00,0.0413,0.0351,0.0389,
江東 (Koto),2014-05-14,05:01～06:00,0.0411,0.0365,0.0391,
江東 (Koto),2014-05-14,04:01～05:00,0.0423,0.0369,0.0390,
江東 (Koto),2014-05-14,03:01～04:00,0.0420,0.0368,0.0394,
江東 (Koto),2014-05-14,02:01～03:00,0.0413,0.0367,0.0391,
江東 (Koto),2014-05-14,01:01～02:00,0.0417,0.0373,0.0392,
江東 (Koto),2014-05-14,00:01～01:00,0.0425,0.0373,0.0389,
江東 (Koto),2014-05-13,23:01～24:00,0.0419,0.0366,0.0393,
江東 (Koto),2014-05-13,22:01～23:00,0.0417,0.0367,0.0393,
江東 (Koto),2014-05-13,21:01～22:00,0.0417,0.0364,0.0389,
江東 (Koto),2014-05-13,20:01～21:00,0.0422,0.0371,0.0389,
江東 (Koto),2014-05-13,19:01～20:00,0.0410,0.0367,0.0389,
江東 (Koto),2014-05-13,18:01～19:00,0.0417,0.0373,0.0392,
江東 (Koto),2014-05-13,17:01～18:00,0.0412,0.0362,0.0392,
江東 (Koto),2014-05-13,16:01～17:00,0.0411,0.0371,0.0391,
江東 (Koto),2014-05-13,15:01～16:00,0.0420,0.0370,0.0391,
江東 (Koto),2014-05-13,14:01～15:00,0.0410,0.0361,0.0388,
江東 (Koto),2014-05-13,13:01～14:00,0.0413,0.0359,0.0389,
江東 (Koto),2014-05-13,12:01～13:00,0.0416,0.0369,0.0390,
江東 (Koto),2014-05-13,11:01～12:00,0.0420,0.0373,0.0398,
江東 (Koto),2014-05-13,10:01～11:00,0.0424,0.0378,0.0401,
江東 (Koto),2014-05-13,09:01～10:00,0.0424,0.0384,0.0399,
江東 (Koto),2014-05-13,08:01～09:00,0.0424,0.0374,0.0399,
江東 (Koto),2014-05-13,07:01～08:00,0.0435,0.0375,0.0414,
江東 (Koto),2014-05-13,06:01～07:00,0.0452,0.0394,0.0425,
江東 (Koto),2014-05-13,05:01～06:00,0.0467,0.0396,0.0430,
江東 (Koto),2014-05-13,04:01～05:00,0.0475,0.0411,0.0441,
江東 (Koto),2014-05-13,03:01～04:00,0.0500,0.0408,0.0442,
江東 (Koto),2014-05-13,02:01～03:00,0.0489,0.0412,0.0444,
江東 (Koto),2014-05-13,01:01～02:00,0.0457,0.0398,0.0432,
江東 (Koto),2014-05-13,00:01～01:00,0.0458,0.0395,0.0420,
江東 (Koto),2014-05-12,23:01～24:00,0.0451,0.0400,0.0427,
江東 (Koto),2014-05-12,22:01～23:00,0.0441,0.0383,0.0420,
江東 (Koto),2014-05-12,21:01～22:00,0.0436,0.0375,0.0403,
江東 (Koto),2014-05-12,20:01～21:00,0.0414,0.0374,0.0394,
江東 (Koto),2014-05-12,19:01～20:00,0.0417,0.0366,0.0392,
江東 (Koto),2014-05-12,18:01～19:00,0.0424,0.0373,0.0392,
江東 (Koto),2014-05-12,17:01～18:00,0.0420,0.0369,0.0391,
江東 (Koto),2014-05-12,16:01～17:00,0.0412,0.0365,0.0393,
江東 (Koto),2014-05-12,15:01～16:00,0.0419,0.0367,0.0391,
江東 (Koto),2014-05-12,14:01～15:00,0.0418,0.0374,0.0393,
江東 (Koto),2014-05-12,13:01～14:00,0.0417,0.0373,0.0393,
江東 (Koto),2014-05-12,12:01～13:00,0.0420,0.0374,0.0395,
江東 (Koto),2014-05-12,11:01～12:00,0.0428,0.0367,0.0392,
江東 (Koto),2014-05-12,10:01～11:00,0.0420,0.0372,0.0392,
江東 (Koto),2014-05-12,09:01～10:00,0.0408,0.0365,0.0392,
江東 (Koto),2014-05-12,08:01～09:00,0.0423,0.0371,0.0394,
江東 (Koto),2014-05-12,07:01～08:00,0.0418,0.0371,0.0394,
江東 (Koto),2014-05-12,06:01～07:00,0.0425,0.0379,0.0398,
江東 (Koto),2014-05-12,05:01～06:00,0.0419,0.0370,0.0392,
江東 (Koto),2014-05-12,04:01～05:00,0.0416,0.0367,0.0392,
江東 (Koto),2014-05-12,03:01～04:00,0.0414,0.0371,0.0393,
江東 (Koto),2014-05-12,02:01～03:00,0.0417,0.0374,0.0393,
江東 (Koto),2014-05-12,01:01～02:00,0.0419,0.0365,0.0392,
江東 (Koto),2014-05-12,00:01～01:00,0.0419,0.0369,0.0393,
